Notices

What's New in latest Release from April 7th, 2021:

- Updated Glossary, including Speed of Maximum Gust, and Total Hourly Precipitation

- Updated national and regional climate services offices contacts and prices information

- Addition of station inventory lists for 1981-2010, 1971-2000, and 1961-1990 Normals.

If you haven't already, please take our survey and provide feedback about our website: https://eccc.sondage-survey.ca/f/LanguageSelection.aspx?s=442ca660-fcf1-47c0-95a9-59707d6fd709

Hourly Data Report for May 10, 2021

CARBERRY CS
MANITOBA
Current Station Operator: ECCC - MSC

49°54'20.900" N
99°21'26.800" W
383.50 m
5010547
71170
WZE

Download Data

Hourly Data (May 2021)
Hourly Data Report for May 10, 2021
TIME
LST
Temp Definition
°C
Dew Point Definition
°C
Rel Hum Definition
%
Precip. Amount Definition
mm

Wind Dir Definition
10's deg

Wind Spd Definition
km/h
Visibility Definition
km
Stn Press Definition
kPa
Hmdx Definition


Wind Chill Definition


Weather Definition


00:00 -0.1 -5.9 65 0.0 3 9   98.05   -3 LegendNANA
01:00 -1.8 -6.2 72 0.0 3 9   98.06   -5 LegendNANA
02:00 -3.0 -6.9 75 0.0 36 9   98.05   -7 LegendNANA
03:00 -3.1 -6.1 80 0.0 1 12   98.03   -8 LegendNANA
04:00 -3.8 -6.1 84 0.0 4 12   98.04   -8 LegendNANA
05:00 -6.6 -8.2 88 0.0 31 7   98.11   -10 LegendNANA
06:00 -3.3 -5.9 83 0.0 36 9   98.15   -7 LegendNANA
07:00 1.7 -3.3 69 0.0 2 7   98.18     LegendNANA
08:00 4.5 -3.0 58 0.0 5 9   98.18     LegendNANA
09:00 5.4 -4.1 50 0.0 1 6   98.19     LegendNANA
10:00 6.6 -3.9 47 0.0 5 5   98.15     LegendNANA
11:00 7.9 -3.7 44 0.0 8 11   98.14     LegendNANA
12:00 8.5 -4.9 38 0.0 33 7   98.10     LegendNANA
13:00 9.9 -4.3 36 0.0 34 5   98.04     LegendNANA
14:00 11.6 -4.2 33 0.0 10 7   97.99     LegendNANA
15:00 11.7 -6.0 28 0.0 8 9   97.94     LegendNANA
16:00 11.9 -7.0 26 0.0 5 6   97.90     LegendNANA
17:00 12.6 -8.0 23 0.0 35 6   97.88     LegendNANA
18:00 13.2 -7.7 23 0.0 3 9   97.86     LegendNANA
19:00 12.5 -7.3 24 0.0 7 7   97.87     LegendNANA
20:00 8.9 -7.6 30 0.0 12 9   97.88     LegendNANA
21:00 5.9 -7.9 36 0.0 7 10   97.94     LegendNANA
22:00 4.4 -7.3 42 0.0 11 7   97.94     LegendNANA
23:00 2.1 -8.6 45 0.0 11 6   97.95     LegendNANA

Notes on Data Quality.

Legend

  • E = Estimated
  • M = Missing
  • NA = Not Available*
  • [empty] = Indicates an unobserved value
Date modified: